Weather History for Monroe, MI

Change the Weather History Date:

Wednesday, November 21, 2012

  Actual Average Record
Temperature  
Mean Temperature 46 °F -  
Max Temperature 60 °F 45 °F 70 °F (1942)
Min Temperature 33 °F 30 °F 15 °F (1969)
Degree Days  
Heating Degree Days 18    
Moisture  
Dew Point 40 °F    
Average Humidity 87    
Maximum Humidity 100    
Minimum Humidity 48    
Precipitation  
Precipitation 0.00 in - - ()
Sea Level Pressure  
Sea Level Pressure 30.18 in    
Wind  
Wind Speed 1 mph (South)    
Max Wind Speed 8 mph    
Max Gust Speed -    
Visibility 4 miles    
Events Fog    
Averages and records for this station are not official NWS values.
T = Trace of Precipitation, MM = Missing Value Source: NWS Daily Summary

Daily Weather History Graph

Daily Weather History Graph

Search for Another Location

Airport:

Trip Planner

Search our weather history database for the weather conditions in past years. The results will help you decide how hot, cold, wet, or windy it might be!

Date:

Astronomy

Nov. 21, 2012 Rise Set
Actual Time 7:31 AM EST 5:07 PM EST
Civil Twilight 7:00 AM EST 5:38 PM EST
Nautical Twilight 6:26 AM EST 6:12 PM EST
Astronomical Twilight 5:53 AM EST 6:45 PM EST
Moon 1:29 PM EST (11/21) 12:43 AM EST (11/21)
Length of Visible Light 10h 37m
Length of Day
9h 36m
First Quarter, 61% of the Moon is Illuminated
Nov 21
First Quarter
Nov 28
Full
Dec 6
Last Quarter
Dec 13
New
Dec 20
First Quarter

Hourly Weather History & Observations

Time (EST) Temp. Windchill Dew Point Humidity Pressure Visibility Wind Dir Wind Speed Gust Speed Precip Events Conditions
12:13 AM 44.6 °F - 42.8 °F 93% 30.14 in 7.0 mi Calm Calm - N/A   Overcast
12:33 AM 44.6 °F - 42.8 °F 93% 30.14 in 5.0 mi Calm Calm - N/A   Overcast
12:54 AM 44.6 °F - 42.8 °F 93% 30.14 in 5.0 mi Calm Calm - N/A   Overcast
1:14 AM 44.6 °F - 42.8 °F 93% 30.14 in 5.0 mi Calm Calm - N/A   Overcast
1:34 AM 42.8 °F - 41.0 °F 93% 30.14 in 5.0 mi Calm Calm - N/A   Overcast
1:54 AM 42.8 °F - 39.2 °F 87% 30.14 in 4.0 mi Calm Calm - N/A   Scattered Clouds
2:14 AM 39.2 °F - 39.2 °F 100% 30.15 in 2.5 mi Calm Calm - N/A   Clear
2:34 AM 41.0 °F - 39.2 °F 93% 30.15 in 2.5 mi Calm Calm - N/A   Clear
2:54 AM 37.4 °F - 37.4 °F 100% 30.16 in 1.0 mi Calm Calm - N/A   Mist
3:14 AM 37.4 °F - 37.4 °F 100% 30.16 in 0.8 mi Calm Calm - N/A   Mist
3:34 AM 35.6 °F - 35.6 °F 100% 30.16 in 0.2 mi Calm Calm - N/A Fog Fog
3:54 AM 37.4 °F - 37.4 °F 100% 30.16 in 0.2 mi Calm Calm - N/A Fog Fog
4:15 AM 35.6 °F - 35.6 °F 100% 30.17 in 0.2 mi Calm Calm - N/A Fog Fog
4:35 AM 35.6 °F - 35.6 °F 100% 30.17 in 0.2 mi Calm Calm - N/A Fog Fog
4:55 AM 35.6 °F - 35.6 °F 100% 30.17 in 0.2 mi Calm Calm - N/A Fog Fog
5:15 AM 33.8 °F - 33.8 °F 100% 30.18 in 0.5 mi Calm Calm - N/A Fog Fog
5:35 AM 35.6 °F - 35.6 °F 100% 30.18 in 0.8 mi Calm Calm - N/A   Mostly Cloudy
5:55 AM 33.8 °F - 33.8 °F 100% 30.19 in 0.2 mi Calm Calm - N/A Fog Fog
6:15 AM 33.8 °F - 33.8 °F 100% 30.19 in 0.5 mi Calm Calm - N/A Fog Fog
6:35 AM 33.8 °F - 33.8 °F 100% 30.18 in 1.8 mi Calm Calm - N/A   Mostly Cloudy
6:55 AM 33.8 °F - 33.8 °F 100% 30.18 in 0.5 mi Calm Calm - N/A Fog Fog
7:16 AM 35.6 °F - 35.6 °F 100% 30.18 in 1.0 mi Calm Calm - N/A   Mist
7:31 AM 33.8 °F - 33.8 °F 100% 30.19 in 0.8 mi Calm Calm - N/A   Mist
7:51 AM 33.8 °F 30.8 °F 33.8 °F 100% 30.22 in 2.0 mi North 3.5 mph - N/A   Mostly Cloudy
8:11 AM 33.8 °F - 33.8 °F 100% 30.21 in 2.0 mi Calm Calm - N/A   Clear
8:31 AM 35.6 °F - 35.6 °F 100% 30.21 in 1.8 mi Calm Calm - N/A   Mist
8:51 AM 37.4 °F - 37.4 °F 100% 30.21 in 2.0 mi Calm Calm - N/A   Clear
9:11 AM 39.2 °F - 39.2 °F 100% 30.21 in 2.5 mi Calm Calm - N/A   Clear
9:31 AM 42.8 °F - 41.0 °F 93% 30.22 in 3.0 mi Calm Calm - N/A   Clear
9:51 AM 44.6 °F - 42.8 °F 93% 30.23 in 4.0 mi Calm Calm - N/A   Scattered Clouds
10:11 AM 46.4 °F - 42.8 °F 87% 30.23 in 4.0 mi Calm Calm - N/A   Scattered Clouds
10:32 AM 50.0 °F - 44.6 °F 82% 30.23 in 5.0 mi Calm Calm - N/A   Haze
10:52 AM 51.8 °F - 44.6 °F 76% 30.22 in 5.0 mi Calm Calm - N/A   Haze
11:12 AM 53.6 °F - 44.6 °F 72% 30.22 in 7.0 mi Calm Calm - N/A   Clear
11:32 AM 55.4 °F - 44.6 °F 67% 30.22 in 7.0 mi Calm Calm - N/A   Clear
11:52 AM 55.4 °F - 44.6 °F 67% 30.22 in 7.0 mi Calm Calm - N/A   Clear
12:12 PM 57.2 °F - 42.8 °F 59% 30.22 in 7.0 mi Calm Calm - N/A   Scattered Clouds
12:32 PM 57.2 °F - 42.8 °F 59% 30.21 in 7.0 mi SSW 4.6 mph - N/A   Scattered Clouds
12:52 PM 57.2 °F - 42.8 °F 59% 30.20 in 7.0 mi South 3.5 mph - N/A   Clear
1:12 PM 59.0 °F - 42.8 °F 55% 30.20 in 7.0 mi SW 3.5 mph - N/A   Clear
1:33 PM 60.8 °F - 42.8 °F 52% 30.19 in 10.0 mi SSW 5.8 mph - N/A   Clear
1:53 PM 60.8 °F - 41.0 °F 48% 30.18 in 10.0 mi WSW 8.1 mph - N/A   Clear
2:13 PM 59.0 °F - 42.8 °F 55% 30.17 in 7.0 mi South 3.5 mph - N/A   Clear
2:33 PM 59.0 °F - 42.8 °F 55% 30.17 in 7.0 mi SE 5.8 mph - N/A   Clear
2:53 PM 59.0 °F - 42.8 °F 55% 30.17 in 7.0 mi SSE 5.8 mph - N/A   Clear
3:13 PM 59.0 °F - 42.8 °F 55% 30.17 in 7.0 mi SE 5.8 mph - N/A   Clear
3:33 PM 57.2 °F - 42.8 °F 59% 30.17 in 7.0 mi SSE 5.8 mph - N/A   Clear
3:53 PM 55.4 °F - 44.6 °F 67% 30.17 in 7.0 mi SSE 5.8 mph - N/A   Clear
4:14 PM 53.6 °F - 44.6 °F 72% 30.17 in 7.0 mi SSE 5.8 mph - N/A   Clear
4:34 PM 51.8 °F - 44.6 °F 76% 30.17 in 7.0 mi SSE 3.5 mph - N/A   Clear
4:54 PM 50.0 °F - 42.8 °F 76% 30.17 in 7.0 mi SSE 5.8 mph - N/A   Clear
5:14 PM 48.2 °F - 42.8 °F 82% 30.16 in 7.0 mi Calm Calm - N/A   Clear
5:34 PM 46.4 °F - 42.8 °F 87% 30.16 in 7.0 mi Calm Calm - N/A   Clear
5:54 PM 46.4 °F - 42.8 °F 87% 30.16 in 7.0 mi Calm Calm - N/A   Clear
6:14 PM 44.6 °F - 41.0 °F 87% 30.17 in 5.0 mi Calm Calm - N/A   Clear
6:34 PM 42.8 °F - 39.2 °F 87% 30.17 in 5.0 mi Calm Calm - N/A   Clear
6:54 PM 41.0 °F - 39.2 °F 93% 30.17 in 4.0 mi Calm Calm - N/A   Clear
7:14 PM 42.8 °F - 41.0 °F 93% 30.17 in 4.0 mi Calm Calm - N/A   Clear
7:35 PM 42.8 °F - 41.0 °F 93% 30.17 in 4.0 mi Calm Calm - N/A   Clear
7:55 PM 41.0 °F - 39.2 °F 93% 30.17 in 2.5 mi Calm Calm - N/A   Clear
8:15 PM 41.0 °F - 39.2 °F 93% 30.17 in 3.0 mi Calm Calm - N/A   Clear
8:35 PM 41.0 °F - 41.0 °F 100% 30.16 in 2.0 mi Calm Calm - N/A   Clear
8:55 PM 41.0 °F - 39.2 °F 93% 30.16 in 2.5 mi Calm Calm - N/A   Clear
9:15 PM 39.2 °F - 39.2 °F 100% 30.16 in 2.0 mi Calm Calm - N/A   Clear
9:35 PM 39.2 °F - 39.2 °F 100% 30.16 in 1.5 mi Calm Calm - N/A   Mist
9:55 PM 39.2 °F - 39.2 °F 100% 30.17 in 1.2 mi Calm Calm - N/A   Mist
10:15 PM 37.4 °F - 37.4 °F 100% 30.17 in 0.8 mi Calm Calm - N/A   Mist
10:35 PM 37.4 °F - 37.4 °F 100% 30.16 in 0.8 mi Calm Calm - N/A   Mist
10:56 PM 37.4 °F - 37.4 °F 100% 30.16 in 0.5 mi Calm Calm - N/A Fog Fog
11:11 PM 37.4 °F - 37.4 °F 100% 30.16 in 0.5 mi Calm Calm - N/A Fog Fog
11:31 PM 37.4 °F - 37.4 °F 100% 30.16 in 0.2 mi Calm Calm - N/A Fog Fog
11:51 PM 37.4 °F - 37.4 °F 100% 30.17 in 0.5 mi Calm Calm - N/A Fog Fog